Weather History for KBMI - October, 2014

Change the Weather History Date:

Saturday, October 25, 2014

  Actual Average Record
Temperature  
Mean Temperature 62 °F -  
Max Temperature 74 °F 60 °F 77 °F (2004)
Min Temperature 51 °F 38 °F 26 °F (2013)
Degree Days  
Heating Degree Days 3    
Growing Degree Days 12 (Base 50)    
Moisture  
Dew Point 50 °F    
Average Humidity 74    
Maximum Humidity 100    
Minimum Humidity 32    
Precipitation  
Precipitation 0.00 in - - ()
Sea Level Pressure  
Sea Level Pressure 29.99 in    
Wind  
Wind Speed 8 mph (West)    
Max Wind Speed 13 mph    
Max Gust Speed -    
Visibility 7 miles    
Events Fog    
Averages and records for this station are not official NWS values.
T = Trace of Precipitation, MM = Missing Value Source: NWS Daily Summary

Daily Weather History Graph

Daily Weather History Graph

Search for Another Location

Airport or City:

Trip Planner

Search our weather history database for the weather conditions in past years. The results will help you decide how hot, cold, wet, or windy it might be!

Date:

Astronomy

Oct. 25, 2014 Rise Set
Actual Time 7:17 AM CDT 6:01 PM CDT
Civil Twilight 6:49 AM CDT 6:29 PM CDT
Nautical Twilight 6:17 AM CDT 7:01 PM CDT
Astronomical Twilight 5:46 AM CDT 7:32 PM CDT
Moon 8:56 AM CDT (10/25) 7:23 PM CDT (10/25)
Length of Visible Light 11h 39m
Length of Day
10h 43m
Waxing Crescent, 3% of the Moon is Illuminated
Oct 25
Waxing Crescent
Oct 30
First Quarter
Nov 6
Full
Nov 14
Last Quarter
Nov 22
New

Hourly Weather History & Observations

Time (CDT) Temp. Dew Point Humidity Pressure Visibility Wind Dir Wind Speed Gust Speed Precip Events Conditions
12:56 AM 56.8 °F 52.9 °F 87% 29.94 in 7.0 mi SSW 9.2 mph - N/A   Partly Cloudy
1:56 AM 59.9 °F 52.9 °F 78% 29.95 in 10.0 mi SW 9.2 mph - N/A   Mostly Cloudy
2:56 AM 59.0 °F 52.9 °F 80% 29.94 in 10.0 mi SW 8.1 mph - N/A   Partly Cloudy
3:56 AM 56.8 °F 52.9 °F 87% 29.94 in 10.0 mi West 6.9 mph - N/A   Clear
4:56 AM 54.9 °F 52.0 °F 90% 29.96 in 10.0 mi West 4.6 mph - N/A   Clear
5:56 AM 52.9 °F 50.9 °F 93% 29.98 in 8.0 mi WSW 6.9 mph - N/A   Clear
6:56 AM 52.9 °F 52.0 °F 97% 29.99 in 6.0 mi WSW 3.5 mph - N/A   Clear
7:13 AM 51.8 °F 51.8 °F 100% 29.99 in 4.0 mi WSW 4.6 mph - N/A   Mostly Cloudy
7:33 AM 51.8 °F 51.8 °F 100% 29.99 in 2.5 mi SW 5.8 mph - N/A   Mostly Cloudy
7:42 AM 51.8 °F 51.8 °F 100% 29.99 in 0.8 mi WSW 3.5 mph - N/A   Overcast
7:45 AM 53.6 °F 53.6 °F 100% 29.99 in 0.2 mi WSW 4.6 mph - N/A Fog Fog
7:56 AM 54.0 °F 54.0 °F 100% 30.00 in 0.1 mi WSW 4.6 mph - N/A Fog Fog
8:07 AM 55.4 °F 55.4 °F 100% 29.99 in 0.1 mi WSW 6.9 mph - 0.00 in Fog Fog
8:18 AM 55.4 °F 55.4 °F 100% 30.00 in 0.1 mi West 5.8 mph - 0.00 in Fog Fog
8:56 AM 55.9 °F 55.9 °F 100% 30.01 in 0.1 mi West 8.1 mph - 0.00 in Fog Fog
9:25 AM 57.2 °F 57.2 °F 100% 30.02 in 0.1 mi WNW 8.1 mph - N/A Fog Fog
9:56 AM 57.9 °F 57.9 °F 100% 30.01 in 2.0 mi WSW 8.1 mph - N/A   Mostly Cloudy
10:10 AM 60.8 °F 57.2 °F 88% 30.02 in 4.0 mi WNW 8.1 mph - N/A   Scattered Clouds
10:56 AM 63.0 °F 57.9 °F 84% 30.01 in 6.0 mi West 8.1 mph - N/A   Haze
11:56 AM 66.9 °F 56.8 °F 70% 30.01 in 9.0 mi NW 8.1 mph - N/A   Clear
12:56 PM 70.9 °F 54.9 °F 57% 29.99 in 10.0 mi WNW 9.2 mph - N/A   Clear
1:56 PM 73.9 °F 48.9 °F 41% 29.98 in 10.0 mi WNW 11.5 mph - N/A   Clear
2:56 PM 73.9 °F 47.8 °F 40% 29.98 in 10.0 mi NW 12.7 mph - N/A   Clear
3:56 PM 73.9 °F 46.9 °F 38% 29.98 in 10.0 mi WNW 10.4 mph - N/A   Clear
4:56 PM 72.9 °F 41.0 °F 32% 29.98 in 10.0 mi NW 11.5 mph - N/A   Clear
5:56 PM 68.0 °F 39.9 °F 36% 29.99 in 10.0 mi WNW 8.1 mph - N/A   Clear
6:56 PM 63.9 °F 41.0 °F 43% 30.00 in 10.0 mi West 6.9 mph - N/A   Clear
7:56 PM 61.9 °F 39.9 °F 44% 30.00 in 10.0 mi WNW 9.2 mph - N/A   Clear
8:56 PM 59.0 °F 38.8 °F 47% 30.01 in 10.0 mi WNW 5.8 mph - N/A   Clear
9:56 PM 59.0 °F 37.9 °F 46% 30.02 in 10.0 mi NW 9.2 mph - N/A   Clear
10:56 PM 59.9 °F 34.9 °F 39% 30.02 in 10.0 mi NW 11.5 mph - N/A   Clear
11:56 PM 55.9 °F 36.9 °F 49% 30.02 in 10.0 mi NNW 10.4 mph - N/A   Clear